Weather History for Marshfield, WI

Change the Weather History Date:

Thursday, November 1, 2012

  Actual Average Record
Temperature  
Mean Temperature 36 °F -  
Max Temperature 45 °F 50 °F 75 °F (1933)
Min Temperature 30 °F 33 °F 13 °F (1951)
Degree Days  
Heating Degree Days 28    
Moisture  
Dew Point 25 °F    
Average Humidity 64    
Maximum Humidity 89    
Minimum Humidity 44    
Precipitation  
Precipitation 0.00 in - - ()
Sea Level Pressure  
Sea Level Pressure 29.91 in    
Wind  
Wind Speed 9 mph (NW)    
Max Wind Speed 17 mph    
Max Gust Speed 18 mph    
Visibility 10 miles    
Events      
Averages and records for this station are not official NWS values.
T = Trace of Precipitation, MM = Missing Value Source: NWS Daily Summary

Daily Weather History Graph

Daily Weather History Graph

Search for Another Location

Airport:

Trip Planner

Search our weather history database for the weather conditions in past years. The results will help you decide how hot, cold, wet, or windy it might be!

Date:

Astronomy

Nov. 01, 2012 Rise Set
Actual Time 7:39 AM CDT 5:48 PM CDT
Civil Twilight 7:08 AM CDT 6:19 PM CDT
Nautical Twilight 6:34 AM CDT 6:53 PM CDT
Astronomical Twilight 6:00 AM CDT 7:27 PM CDT
Moon 7:40 PM CDT (11/1) 10:17 AM CDT (11/1)
Length of Visible Light 11h 10m
Length of Day
10h 09m
Waning Gibbous, 93% of the Moon is Illuminated
Nov 1
Waning Gibbous
Nov 6
Last Quarter
Nov 13
New
Nov 20
First Quarter
Nov 28
Full

Hourly Weather History & Observations

Time (CDT) Temp. Windchill Dew Point Humidity Pressure Visibility Wind Dir Wind Speed Gust Speed Precip Events Conditions
12:54 AM 32.0 °F 24.2 °F 15.1 °F 50% 29.90 in 10.0 mi WNW 9.2 mph - N/A   Scattered Clouds
1:54 AM 36.0 °F 30.3 °F 16.0 °F 44% 29.88 in 10.0 mi NW 6.9 mph - N/A   Overcast
2:54 AM 36.0 °F 31.1 °F 16.0 °F 44% 29.88 in 10.0 mi WNW 5.8 mph - N/A   Overcast
3:54 AM 34.0 °F 29.8 °F 18.0 °F 52% 29.87 in 10.0 mi WNW 4.6 mph - N/A   Overcast
4:54 AM 33.1 °F 26.9 °F 17.1 °F 52% 29.87 in 10.0 mi WNW 6.9 mph - N/A   Partly Cloudy
5:54 AM 36.0 °F 30.3 °F 18.0 °F 48% 29.88 in 10.0 mi WNW 6.9 mph - N/A   Overcast
8:54 AM 37.9 °F 32.7 °F 21.9 °F 53% 29.90 in 10.0 mi NW 6.9 mph - N/A   Overcast
9:09 AM 39.2 °F 35.0 °F 21.2 °F 49% 29.86 in 10.0 mi WNW 5.8 mph - N/A   Overcast
9:38 AM 39.2 °F 31.2 °F 23.0 °F 52% 29.86 in 10.0 mi NNW 13.8 mph 18.4 mph N/A   Overcast
9:46 AM 39.2 °F 32.5 °F 24.8 °F 56% 29.87 in 10.0 mi NNW 10.4 mph - N/A   Overcast
9:54 AM 39.0 °F 31.8 °F 24.1 °F 55% 29.91 in 10.0 mi NNW 11.5 mph - N/A   Overcast
10:54 AM 39.9 °F 31.4 °F 27.0 °F 60% 29.91 in 10.0 mi NNW 16.1 mph - 0.00 in   Overcast
11:42 AM 42.8 °F 34.8 °F 30.2 °F 61% 29.87 in 10.0 mi NNW 17.3 mph - N/A   Overcast
12:07 PM 42.8 °F 35.4 °F 30.2 °F 61% 29.87 in 10.0 mi NNW 15.0 mph - N/A   Overcast
1:54 PM 43.0 °F 36.4 °F 28.9 °F 58% 29.89 in 10.0 mi NNW 12.7 mph - N/A   Overcast
3:54 PM 41.0 °F 34.7 °F 32.0 °F 70% 29.91 in 10.0 mi NNW 10.4 mph - N/A   Overcast
4:54 PM 41.0 °F 33.1 °F 30.9 °F 67% 29.91 in 10.0 mi NNW 15.0 mph - N/A   Overcast
5:54 PM 37.0 °F 28.9 °F 30.9 °F 79% 29.93 in 10.0 mi NNW 12.7 mph - 0.00 in   Mostly Cloudy
6:54 PM 36.0 °F 28.0 °F 30.0 °F 79% 29.95 in 10.0 mi NNW 11.5 mph - N/A   Scattered Clouds
7:54 PM 33.1 °F 25.5 °F 30.0 °F 89% 29.97 in 10.0 mi NNW 9.2 mph - N/A   Clear
8:54 PM 33.1 °F 24.9 °F 28.9 °F 85% 29.97 in 10.0 mi NNW 10.4 mph - N/A   Clear
9:54 PM 32.0 °F 24.2 °F 28.9 °F 88% 29.99 in 10.0 mi NNW 9.2 mph - N/A   Clear
10:54 PM 30.9 °F 23.5 °F 27.0 °F 85% 29.99 in 10.0 mi NNW 8.1 mph - N/A   Clear
11:54 PM 30.0 °F 21.7 °F 27.0 °F 88% 30.00 in 10.0 mi NNW 9.2 mph - N/A   Clear